RH
44 47 45 44 42 35 32 31 29 29 34 43 44 53 54 48 46 45 44 44 45 43 40 37 38 40 45 47 47 46 46 45 38 34 34 33 38 44
44 50 45 42 37 32 29 28 27 27 31 35 41 43 43 42 42 40 38 38 38 37 35 36 37 39 42 43 43 44 42 38 43 39 44 53 46 45
50 48 45 40 34 31 28 28 28 27 30 44 37 36 37 33 30 30 31 31 29 29 24 20 17 17 17 16 16 18 23 29 26 30 37 35 47 54
51 48 46 38 34 29 28 29 31 37 37 40 45 30 30 30 30 26 21 16 14 10 9 8 7 7 6 6 6 7 9 10 14 16 19 28 26 38
52 48 40 35 32 28 29 30 36 40 36 32 32 32 29 24 18 14 9 6 5 5 4 4 4 3 3 3 3 3 4 5 6 10 11 12 18 23
51 41 37 30 29 31 31 38 40 37 32 31 31 25 17 11 8 6 5 4 3 3 2 2 2 2 2 2 2 2 2 2 3 4 6 6 7 12
52 40 31 29 30 31 37 40 33 33 32 28 16 11 8 6 4 4 3 2 2 2 2 3 3 3 3 3 3 2 2 2 2 2 3 4 4 6
43 32 30 29 32 39 39 37 32 31 23 12 9 7 5 4 3 2 2 3 4 3 3 4 3 3 3 2 2 3 3 3 2 2 2 3 4 4
34 30 29 32 39 40 35 34 32 21 11 9 7 5 4 3 2 3 4 4 4 5 4 5 3 4 3 3 3 3 3 2 3 3 2 2 2 3
31 28 30 39 39 34 39 33 18 13 9 7 5 4 3 3 4 4 4 5 5 5 4 5 3 3 3 3 3 3 3 3 2 2 3 2 2 2
30 32 34 38 36 42 31 19 11 9 6 5 4 3 3 5 4 5 5 6 6 5 4 4 3 3 3 3 3 3 3 3 2 2 2 3 2 2
34 37 38 37 42 30 17 10 9 6 5 4 3 3 5 5 5 6 6 6 6 6 4 5 4 3 3 3 3 3 2 2 2 2 2 3 3 2
40 41 39 44 34 16 10 10 7 5 5 4 4 6 5 7 7 6 5 6 5 5 4 4 4 3 3 3 2 2 2 2 2 2 2 2 3 2
40 40 44 35 16 10 8 6 5 4 4 5 6 6 8 8 7 7 6 5 5 4 4 4 3 3 3 2 2 2 2 2 2 2 2 2 2 2
42 43 32 13 9 8 6 5 5 4 5 6 5 8 9 9 8 7 5 5 4 4 4 3 3 3 2 2 2 2 2 2 2 2 2 2 2 3
45 32 14 9 7 6 5 4 4 6 6 6 8 9 9 8 8 6 5 4 4 4 4 3 3 3 2 2 2 2 2 2 2 2 2 2 2 2
31 14 10 7 5 5 4 4 6 6 6 8 9 10 9 9 8 6 5 5 4 4 4 4 3 3 2 2 2 2 2 2 2 2 2 2 2 2
11 9 7 6 5 4 4 6 6 6 8 9 10 10 9 9 8 6 5 4 4 4 4 4 3 2 2 2 2 2 2 2 2 2 2 2 2 2
8 6 5 5 4 5 7 6 7 8 10 10 10 10 10 8 7 6 5 4 4 4 4 3 3 2 2 3 2 2 2 3 2 2 2 2 2 2
6 5 5 4 6 7 6 7 9 10 10 10 10 10 9 8 7 6 5 4 4 4 4 3 3 3 2 2 3 2 2 2 2 2 2 2 2 2
5 4 5 7 7 6 8 9 10 11 10 10 10 10 10 9 7 6 5 5 4 4 4 3 3 3 2 2 3 2 2 2 2 2 2 2 2 2
4 6 7 6 6 7 8 9 10 10 10 9 10 10 10 9 8 6 5 5 4 4 4 3 3 3 2 2 2 2 2 2 2 2 2 2 2 2
7 7 7 8 8 9 10 10 10 10 10 9 9 9 10 9 8 6 5 5 4 4 4 3 3 3 2 2 2 2 2 2 2 2 2 2 2 2
Wind_Speed
103 103 94 88 86 85 83 83 82 79 77 81 85 91 93 96 99 102 106 110 114 116 117 118 119 120 123 125 125 123 123 119 114 109 105 99 97 94
108 107 99 94 92 91 90 91 90 83 78 84 88 91 96 101 107 112 115 116 121 125 127 130 130 132 133 136 136 136 135 131 128 122 118 114 109 105
112 112 105 100 98 98 99 96 91 89 86 86 94 99 104 110 115 120 124 127 129 134 137 137 134 132 133 133 134 136 134 138 136 134 130 125 121 118
118 117 109 106 105 104 101 96 94 95 93 93 101 108 114 119 125 128 131 132 131 131 128 126 125 124 121 121 124 127 131 131 133 133 130 126 123 122
122 118 112 111 109 106 102 100 99 100 105 107 110 117 121 126 128 129 127 124 121 117 115 114 112 110 107 106 106 109 112 117 118 126 126 124 124 122
128 118 117 113 109 104 103 105 106 111 116 118 122 122 125 125 120 117 115 114 108 102 97 97 98 96 95 95 94 94 97 101 104 110 117 119 118 119
124 121 117 113 108 107 108 110 115 120 123 126 125 124 120 120 114 106 97 92 91 88 86 87 86 84 85 83 84 84 85 88 92 98 105 111 113 114
126 119 116 110 109 110 115 121 125 127 129 125 124 120 118 110 99 91 86 81 78 83 74 78 76 75 75 72 74 73 73 79 83 88 94 101 105 107
123 118 113 112 112 116 122 127 132 132 128 125 121 116 104 95 86 80 76 72 71 73 71 71 72 69 67 65 67 67 68 70 77 82 87 92 99 104
122 118 116 115 119 124 129 132 131 132 128 124 117 104 94 86 76 71 69 66 67 67 67 63 65 63 61 61 62 62 65 66 70 75 80 85 90 98
120 119 119 121 126 131 132 131 128 127 125 114 103 94 85 77 70 64 63 61 63 67 65 58 61 60 58 58 57 58 60 62 65 68 74 81 86 91
120 121 125 129 133 135 132 128 124 121 112 103 95 85 76 70 65 63 60 58 58 62 58 57 59 57 59 55 54 56 57 58 59 63 70 77 83 87
121 125 130 135 138 134 130 125 121 110 100 92 84 77 69 65 65 63 59 56 56 57 53 53 54 52 54 53 52 51 53 54 56 60 66 73 80 84
125 130 134 138 134 128 126 118 108 98 88 81 75 66 63 62 61 60 57 54 52 52 50 49 50 46 48 50 46 45 46 50 53 58 63 69 74 81
132 135 136 130 126 123 117 104 95 86 78 73 65 62 60 59 58 57 54 50 49 46 47 45 46 44 43 44 43 39 42 46 51 53 60 65 70 77
138 139 131 126 122 114 103 92 83 75 70 63 60 59 57 56 54 53 52 47 44 43 43 42 42 42 39 37 37 34 35 42 46 49 55 62 66 72
139 130 125 120 110 100 90 80 72 68 62 58 56 54 53 51 50 48 49 46 42 40 39 40 39 38 35 33 33 31 32 37 42 46 52 57 62 68
127 122 116 106 96 87 79 71 66 60 56 55 53 51 50 48 48 45 45 43 39 37 37 37 37 35 32 29 27 29 30 33 39 45 50 54 59 64
118 111 100 92 82 75 68 63 58 56 53 51 50 48 47 45 44 43 42 41 36 35 34 33 33 34 30 24 28 23 25 30 36 38 43 50 56 61
105 95 87 78 71 66 60 56 53 52 50 48 46 45 44 43 41 41 40 39 36 32 32 31 29 30 28 24 23 23 25 30 34 38 43 50 55 59
90 80 73 68 63 57 54 51 48 48 48 46 44 43 42 41 39 39 37 36 34 31 28 28 27 26 25 23 21 23 23 27 30 32 38 45 51 56
77 71 66 60 55 52 50 47 46 45 45 43 41 41 39 38 38 37 35 33 32 30 27 25 24 24 23 21 20 22 22 23 27 28 31 37 44 51
66 62 57 54 51 49 48 46 45 44 43 42 40 39 37 36 35 35 33 31 29 27 25 23 21 21 20 19 20 20 20 19 22 23 26 30 38 44
Wind_Direction
314 315 311 308 305 303 300 297 296 293 290 289 287 285 284 284 284 283 283 282 282 282 282 281 279 278 277 277 276 274 272 270 267 265 262 258 258 257
313 316 311 308 306 305 302 300 299 296 294 291 288 287 286 285 285 285 284 283 283 282 281 279 277 275 273 271 270 269 268 267 265 263 262 260 258 256
313 315 311 309 306 305 303 302 300 297 296 294 292 291 290 289 288 288 287 285 283 280 278 277 275 273 270 269 267 264 262 262 261 260 258 257 256 254
313 313 310 308 306 305 304 302 300 299 297 296 294 295 293 291 289 287 285 284 284 283 280 279 277 274 270 268 265 261 260 257 256 256 254 254 251 251
312 311 308 307 305 305 304 302 301 300 299 299 297 295 292 290 289 291 290 290 287 284 281 279 276 274 270 267 263 259 256 254 253 251 250 249 246 243
311 309 307 306 305 305 303 303 303 301 301 300 298 296 295 295 295 293 292 290 287 284 280 276 273 271 268 266 262 259 256 253 250 247 246 245 243 239
308 307 306 306 306 305 305 304 303 303 302 302 300 300 300 300 298 294 292 290 287 282 279 277 273 272 269 267 263 259 255 252 248 245 243 241 240 236
307 306 306 306 306 306 306 306 305 305 303 303 305 305 304 301 300 298 295 291 287 285 282 279 276 274 272 269 265 261 255 251 247 244 241 238 237 234
306 306 306 307 307 306 306 306 307 306 306 308 308 306 305 304 302 299 294 291 288 284 283 281 278 275 273 269 264 261 256 249 245 242 240 237 234 232
305 306 306 307 307 306 306 308 307 309 310 309 309 308 308 305 302 299 295 293 289 286 283 283 281 278 274 268 264 260 255 250 245 241 238 236 233 230
305 307 307 307 306 307 309 309 310 312 311 310 309 309 308 305 301 298 297 296 292 290 289 288 282 278 273 269 265 260 256 250 244 240 236 234 231 229
305 306 306 307 309 310 310 311 312 312 311 311 310 309 307 303 301 301 300 297 293 290 290 284 280 278 275 271 265 260 255 250 243 238 235 232 231 228
305 305 307 309 310 311 312 312 312 312 311 310 308 308 306 305 304 303 302 300 294 289 289 283 279 276 274 271 265 260 255 249 242 236 232 231 228 227
305 306 309 311 311 311 312 312 311 311 310 308 306 305 306 305 304 304 302 300 295 292 289 284 282 279 275 273 268 262 255 249 241 235 231 228 227 226
306 309 310 310 311 311 311 311 310 309 308 307 306 307 307 306 305 304 303 302 297 294 290 286 284 281 277 274 270 262 253 246 239 233 231 228 225 223
308 310 311 311 310 310 310 310 309 308 307 307 308 308 307 306 306 306 305 303 299 295 292 289 286 283 280 276 270 265 255 245 240 233 229 228 225 222
309 309 309 309 309 310 310 309 308 307 307 308 307 307 308 308 308 308 306 305 302 297 295 291 287 285 284 278 272 261 251 243 238 232 228 228 226 222
308 308 308 309 309 309 309 308 307 306 308 309 309 310 310 311 311 310 308 307 305 300 297 292 288 287 285 283 275 262 251 242 235 231 226 223 223 222
307 307 307 308 308 307 306 306 306 307 308 309 310 312 312 312 312 312 311 309 307 303 298 294 291 290 289 285 272 260 250 241 238 237 231 224 221 220
306 307 307 307 307 306 305 304 305 306 307 309 311 312 313 314 315 315 314 311 310 306 301 298 294 291 289 284 275 261 243 238 234 229 224 221 218 219
307 307 307 306 305 304 303 303 304 306 308 310 312 314 315 316 317 316 315 313 312 309 304 300 296 292 288 284 275 264 250 243 238 233 227 224 221 219
306 306 306 304 303 302 303 303 305 306 305 307 311 314 316 318 317 318 318 315 313 311 306 304 298 294 289 283 274 262 253 244 243 234 230 227 223 222
304 303 303 302 302 302 303 303 303 304 304 307 311 315 316 318 318 319 320 319 315 312 308 306 301 294 288 282 274 265 256 242 240 235 230 228 226 222